Showing default

KOREASAT 6A, 61910

Orbit data source: Space-Track

KOREASAT 6A, 61910 is a payload satellite owned by KT Sat (KR) in GEO that was launched on Mon, 11 Nov 2024 UTC via an FALCON 9 launch vehicle from the Air Force Eastern Test Range (AFETR). Payloads include a variety of satellites, spacecraft, and rockets equipped with specific instruments for various scientific and technological missions. These include communications satellites like Starlink; space stations such as the ISS; scientific satellites like the Hubble; Earth observation satellites from companies like Planet Labs, Umbra, and HawkEye 360; GPS; miniature CubeSats for education and research; and military/defense satellites.

Not visible in the next 10 days
KOREASAT 6A details
Identifier
61910, 2024-206A
Orbit
GEO
Last TLE update9 hours ago
Origin
Flag of KRKT Sat (KR / SKOR)
ManufacturerThales Alenia
MissionOperational spacecraft
Bus & MotorSPACEBUS 4000B2, S400
Mass~3,500 kg wet, ~2,000 kg dry
Launch date (UTC)
2024-11-11 (1 month ago)
Launch vehicle
FALCON 9
Launch site
Air Force Eastern Test Range (AFETR)
Object type
Payload
Rocket body
Debris
Shape & HBRUnknown
Radar Cross SectionRCS unknown

Expand to show TLE details & history

TLE from 9 hours ago
0 KOREASAT 6A
1 61910U 24206A   24361.05230693 -.00000333  00000-0  00000+0 0  9994
2 61910   0.0674 183.9193 0001718 348.8785  57.0758  1.00268951   565
Epoch: 2024-12-26T01:15Z
Definitive object data (Epoch: 2024-12-26T01:15:19.318Z)
Latitude0.02779°
Longitude116.01496°
Altitude35,782.961 km
Speed3.075 km/s
True Right ascension15h 19m 31s
True Declination0° 01' 40"
Sunlit
Object was in daylight at TLE epoch
Visualization TLE readout
Latitude0.01026°
Longitude-114.78855°
Altitude35,794.101 km
Speed3.074 km/s
Apparent Right ascension23h 40m 14s
Apparent Declination-5° 03' 02"
Sunlit
Object is in daylight
Visualization observer readout
Local Sidereal Time09:11:52
Azimuth306.362° NW
Elevation-41.752°
Doppler factor1
Orbital elements
Apogee altitude35,795.704 km
Perigee altitude35,781.216 km
Semi-major axis42,166.597 km
Eccentricity0.0001718
Inclination0.0674°
RAAN183.9193°
Arg. of periapsis348.8785°
True anomaly57.09233°
Mean anomaly57.0758°
Eccentric anomaly57.08406°
Mean motion0.25066 °/min
BSTARUnknown
Orbital period1436.19 mins
Loading historical data...
61910 neighbors
Authenticating...
Loading maneuver chart data...
Loading historical data...
Loading historical data...
Loading historical data...
Loading historical data...
Loading historical data...
Loading historical data...
Loading historical data...
Other satellites on launch #206 in the year 2024 (2024-11-11 UTC)

KOREASAT 6A Visibility forecast

Observer location: undefined°, undefined

KOREASAT 6A is not visible in the next 10 days
Span
Click to sort rows by Start time (UTC) header in descending order
Start Az.
Max El. time (UTC)
Max El. Az.
Max El.
End time (UTC)
End Az.
|